metlocid,date_time,avg_surfchange_cm,std_surfchange_cm,min_surfchange_cm,max_surfchange_cm,n_surfchange_cm,n_comments
VIAM,1/1/04,2.327853005,0.073649595,2.1,2.5,517,0
VIAM,2/1/04,4.817014381,5.564210044,1.8,18.1,2780,4
VIAM,3/1/04,15.29112905,0.866245842,11.7,17.4,2976,0
VIAM,4/1/04,13.25118054,1.024889295,11.3,17.5,2880,0
VIAM,5/1/04,7.331754041,4.961666483,1.9,13.2,2976,0
VIAM,6/1/04,1.707256951,1.53538085,-0.1,6.3,2880,0
VIAM,7/1/04,-0.170228497,0.286034758,-0.9,0.7,2976,0
VIAM,8/1/04,-0.349395162,0.574862472,-1.9,0.6,2976,0
VIAM,9/1/04,-0.276145837,0.619339593,-1.4,1.6,2880,0
VIAM,10/1/04,4.04082662,3.45961135,0.4,14.4,2976,0
VIAM,11/1/04,4.571701392,5.031496622,-1.2,12.9,2880,0
VIAM,12/1/04,-0.360954308,0.097399617,-0.7,0,2976,0
VIAM,1/1/05,0.025739247,0.17380408,-0.4,0.3,2976,0
VIAM,2/1/05,1.38031994,1.935232349,-0.1,5.2,2688,0
VIAM,3/1/05,4.198118279,0.535982405,2.6,5.7,2976,0
VIAM,4/1/05,3.843784704,1.84886292,1.6,7.2,2880,0
VIAM,5/1/05,4.322446226,0.832971917,3.1,8.2,2976,0
VIAM,6/1/05,4.165312491,0.989753811,2.9,11.4,2880,0
VIAM,7/1/05,3.347715058,0.568218344,2.7,9.1,2976,0
VIAM,8/1/05,3.294086025,0.501478793,2.5,7.2,2976,0
VIAM,9/1/05,4.103819462,1.501167553,2.5,6.7,2880,0
VIAM,10/1/05,5.981048378,0.539508379,5,7,2976,0
VIAM,11/1/05,3.363055556,2.271545688,0.3,6.6,2880,0
VIAM,12/1/05,0.794690864,0.201853689,0.4,1.2,2976,0
VIAM,1/1/06,0.967405914,0.116559042,0.6,1.2,2976,0
VIAM,2/1/06,3.2840402,6.022290375,0.8,53,2688,0
VIAM,3/1/06,7.380477174,3.475824591,2.7,18.4,2976,0
VIAM,4/1/06,7.315104148,0.699047357,3.2,9,2880,0
VIAM,5/1/06,6.825907266,0.606810823,5.4,12.1,2976,0
VIAM,6/1/06,7.32694442,0.303887686,6.6,8.3,2880,0
VIAM,7/1/06,6.850571211,0.353935407,6.4,8.9,2976,0
VIAM,8/1/06,7.410080644,0.873805085,6.3,10.6,2976,0
VIAM,9/1/06,9.683680531,0.748520169,7.3,10.9,2880,0
VIAM,10/1/06,9.151780895,0.50647926,8,10.8,2976,0
VIAM,11/1/06,10.1575347,18.51286088,-176.5,53,2880,0
VIAM,12/1/06,5.987204373,9.511491433,-52.7,53,2554,1
VIAM,1/1/07,-0.512157241,0.024654587,-0.52,-0.41,2976,0
VIAM,2/1/07,-0.515319922,0.016874548,-0.53,-0.46,2688,0
VIAM,3/1/07,-0.466532259,0.005686867,-0.47,-0.45,2976,0
VIAM,4/1/07,-0.452753471,0.007952298,-0.51,-0.42,2880,0
VIAM,5/1/07,-0.459875679,0.003209966,-0.47,-0.45,2976,0
VIAM,6/1/07,-0.468142364,0.009314122,-0.5,-0.46,2880,0
VIAM,7/1/07,-0.474855311,0.005505045,-0.49,-0.47,2972,4
VIAM,8/1/07,-0.47207325,0.004365946,-0.48,-0.46,2976,0
VIAM,9/1/07,-0.460218746,0.011709734,-0.48,-0.42,2880,0
VIAM,10/1/07,-0.470369622,0.006957087,-0.48,-0.45,2976,0
VIAM,11/1/07,-0.447996531,0.014195332,-0.48,-0.43,2880,0
VIAM,12/1/07,-0.509075926,0.01706496,-0.52,-0.47,2976,0
VIAM,1/1/08,-0.515142843,0.005522897,-0.52,-0.49,2975,0
VIAM,2/1/08,-0.510071829,0.00084468,-0.52,-0.51,2784,0
VIAM,3/1/08,-0.507533595,0.006321802,-0.52,-0.49,2976,0
VIAM,4/1/08,-0.510868045,0.004604155,-0.52,-0.5,2880,0
VIAM,5/1/08,-0.519408584,0.002524442,-0.52,-0.5,2976,0
VIAM,6/1/08,-0.524020825,0.27309098,-7.16,0,2880,0
VIAM,7/1/08,-0.524462342,0.006734822,-0.54,-0.51,2976,0
VIAM,8/1/08,-0.522274844,0.007632281,-0.53,-0.5,2976,0
VIAM,9/1/08,-0.525624976,0.00496164,-0.53,-0.52,2880,0
VIAM,10/1/08,-0.516989231,0.005615808,-0.53,-0.51,2976,0
VIAM,11/1/08,-0.519999981,0,-0.52,-0.52,2880,0
VIAM,12/1/08,-0.519946218,0.000731384,-0.52,-0.51,2976,0
VIAM,1/1/09,-0.520950921,0.002933939,-0.53,-0.52,2976,0
VIAM,2/1/09,-0.468426324,0.056394723,-0.53,-0.4,2688,0
VIAM,3/1/09,-0.40608871,0.007631696,-0.43,-0.4,2976,0
VIAM,4/1/09,-0.441854172,0.037295229,-0.52,-0.4,2880,0
VIAM,5/1/09,-0.462446243,0.00524977,-0.48,-0.43,2976,0
VIAM,6/1/09,-0.476930548,0.004643079,-0.49,-0.47,2880,0
VIAM,7/1/09,-0.479274185,0.004424237,-0.49,-0.45,2976,0
VIAM,8/1/09,-0.473662628,0.014244883,-0.49,-0.42,2976,0
VIAM,9/1/09,-0.50236458,0.008093689,-0.52,-0.48,2880,0
VIAM,10/1/09,-0.479593411,0.01879932,-0.51,-0.43,2976,0
VIAM,11/1/09,-0.413892361,0.054728689,-0.65,0,2880,0
VIAM,12/1/09,48.85559533,7.533479455,-0.37,52.6,2972,4
VIAM,1/1/10,51.91659963,0.106210382,51.6,52.2,2976,0
VIAM,2/1/10,50.65837056,1.598058125,48.2,52.5,2688,0
VIAM,3/1/10,44.03954937,1.827575294,37.7,48.9,2976,0
VIAM,4/1/10,44.64868062,1.190120101,41,46,2880,0
VIAM,5/1/10,45.43672718,0.589777243,43,46.8,2976,0
VIAM,6/1/10,45.95163201,0.240608383,45.2,46.8,2880,0
VIAM,7/1/10,47.68138435,2.101295866,44.6,94.1,2976,0
VIAM,8/1/10,48.58746607,0.46426367,46,51.2,2960,16
VIAM,9/1/10,48.90312503,0.370954825,48.1,49.8,2880,0
VIAM,10/1/10,48.42768817,0.278783841,47.8,49.4,2976,0
VIAM,11/1/10,51.9902677,0.488187151,49.4,53.2,2877,3
VIAM,12/1/10,51.48907961,0.192161543,50,52,2976,0
VIAM,1/1/11,51.40638448,0.206221486,50.7,52,2976,0
VIAM,2/1/11,45.3266741,5.519019985,36.1,52,2688,0
VIAM,3/1/11,39.15742606,0.777752852,38.2,41.2,2976,0
VIAM,4/1/11,40.69125021,0.453047007,39.6,41.3,2880,0
VIAM,5/1/11,40.9745296,0.154015333,40.3,41.3,2976,0
VIAM,6/1/11,40.85934009,0.347595491,40,41.7,2880,0
VIAM,7/1/11,41.28329969,1.395486103,39.9,45.4,2976,0
VIAM,8/1/11,45.14640429,0.596939537,42.5,46,2976,0
VIAM,9/1/11,44.99767359,1.02357668,42.3,46.9,2880,0
VIAM,10/1/11,44.19764787,23.77185478,0,298.1,2976,52
VIAM,11/1/11,38.01809029,14.75962309,0,299.4,2880,12
VIAM,12/1/11,39.18669355,7.147101461,0,51.5,2976,68
VIAM,1/1/12,57.09380027,3.153669528,50,59,2968,8
VIAM,2/1/12,58.38541686,1.25302766,53.4,60.6,2784,0
VIAM,3/1/12,59.11226476,0.45542931,58.2,62.5,2976,0
VIAM,4/1/12,58.98500001,0.500097985,57.8,60.8,2880,0
VIAM,5/1/12,59.12318546,0.37220217,57.6,60,2976,0
VIAM,6/1/12,59.83833321,0.614909127,58.6,61.1,2880,0
VIAM,7/1/12,60.27738581,1.277880044,58.2,63.2,2976,0
VIAM,8/1/12,59.26122318,0.450771594,56.8,60.9,2976,0
VIAM,9/1/12,59.74579858,0.540788205,58.2,61.1,2880,0
VIAM,10/1/12,59.43108208,0.288930183,58.8,60.6,2976,0
VIAM,11/1/12,57.50100877,1.176516759,55.4,60.4,2875,4
VIAM,12/1/12,58.96722659,1.533663307,0,59.3,2975,1
VIAM,1/1/13,57.32510061,3.910019593,46,59.3,2976,0
VIAM,2/1/13,51.62347484,1.641845393,49.2,57.3,2688,0
VIAM,3/1/13,57.30803094,1.416210827,53.8,60.6,2976,0
VIAM,4/1/13,59.06843752,0.726490049,56.9,61.4,2880,0
VIAM,5/1/13,57.7509745,1.512726612,53.6,59.7,2976,0
VIAM,6/1/13,58.35225699,0.77990238,55.7,59.8,2880,0
VIAM,7/1/13,57.1943548,1.0628682,54.9,59.4,2976,0
VIAM,8/1/13,59.60453627,0.538790614,57,60.9,2976,0
VIAM,9/1/13,55.92427076,1.776187783,54.3,60.3,2880,0
VIAM,10/1/13,57.37711694,1.958110193,55.1,60.1,2976,0
VIAM,11/1/13,59.14055547,1.960378889,0,60.1,2880,3
VIAM,12/1/13,59.28047719,0.114342771,58.9,59.6,2976,0
VIAM,1/1/14,59.24348102,0.105054777,58.9,59.6,2976,2790
VIAM,2/1/14,59.31063999,0.10115793,58.9,59.7,2688,2688
VIAM,3/1/14,59.45688868,0.131441426,59.2,60.1,2976,2976
VIAM,4/1/14,59.77364576,0.256184225,59.3,60.8,2880,2880
VIAM,5/1/14,59.77116932,0.285260228,59.1,60.3,2976,2976
VIAM,6/1/14,59.96843748,0.354919183,59.1,60.8,2880,2880
VIAM,7/1/14,60.63965064,0.545583146,59.3,61.5,2976,2976
VIAM,8/1/14,59.75157945,0.418533809,59.2,61.3,2976,2976
VIAM,9/1/14,59.50746538,0.186993985,59.2,60.1,2880,2880
VIAM,10/1/14,57.48887777,2.725322411,51.9,60.1,2976,2976
VIAM,11/1/14,59.23743044,0.117820204,58.8,59.8,2880,2880
VIAM,12/1/14,58.7287682,1.871139055,0,59.4,2972,2972
VIAM,1/1/15,58.56280197,0.10928654,58.1,58.8,2976,2976
VIAM,2/1/15,58.65939431,0.105264936,58.1,59,2576,2576
VIAM,3/1/15,58.78569441,2.162206225,1,59.4,720,720
VIAM,4/1/15,57.2696181,1.548337947,54.7,60.3,2880,2880
VIAM,5/1/15,59.6066197,0.350940788,58.5,60.3,2976,2976
VIAM,6/1/15,59.48529315,0.437680488,57.5,60.4,2781,2781
VIAM,7/1/15,59.52610965,0.494050648,58.6,60.7,1532,1532
VIAM,8/1/15,59.57859541,0.870461298,57.2,60.9,2976,2976
VIAM,9/1/15,59.19312499,0.339985467,58.6,60.1,2880,2880
VIAM,10/1/15,58.78706325,0.137385017,58.4,59.4,2976,2976
VIAM,11/1/15,58.63822901,0.113550566,58.3,59,2880,2880
VIAM,12/1/15,58.48357682,1.559188946,0,58.9,2874,2874
VIAM,1/1/16,58.48894482,0.092483894,58.2,59,2976,2976
VIAM,2/1/16,58.57719071,0.117742499,58.2,59.2,2784,2784
VIAM,3/1/16,58.44247319,0.614024106,56.3,59.6,2976,2976
VIAM,4/1/16,59.58725701,0.313781211,58.8,60.2,2880,2880
VIAM,5/1/16,59.83483539,0.776204069,58.2,61.9,2885,2886
VIAM,6/1/16,55.12736111,8.960838012,0,62.3,2880,2880
VIAM,7/1/16,59.37600813,0.525141588,57.9,61,2976,2976
VIAM,8/1/16,59.35144477,0.522705799,57.4,61.2,2976,2976
VIAM,9/1/16,59.4364236,1.068860404,38.8,62.3,2880,2880
VIAM,10/1/16,57.90493947,0.720265441,56.8,60.2,2976,2976
VIAM,11/1/16,58.26621524,0.661364304,56.7,59.7,2880,2880
VIAM,12/1/16,58.391793,0.222898381,57.9,59.2,2973,2975
VIAM,1/1/17,58.71394491,0.417334985,58,60,2976,2976
VIAM,2/1/17,58.65613845,0.348369814,58.1,60,2688,2688
VIAM,3/1/17,56.86733882,1.549128837,54.4,59.2,2976,2976
VIAM,4/1/17,58.44944442,1.163082539,54.4,59.4,2880,2880
VIAM,5/1/17,59.43430777,0.969024015,58,62.8,2976,2976
VIAM,6/1/17,57.28863314,6.952418622,37.8,62.8,2868,2880
VIAM,7/1/17,59.37973791,1.441155942,38.3,62.4,2976,2976
VIAM,8/1/17,59.20819883,1.061253374,53.7,62.6,2976,2976
VIAM,9/1/17,58.85055553,0.740074802,56.9,60.3,2880,2880
VIAM,10/1/17,58.64102812,0.174144275,57.9,59.4,2976,2976
VIAM,11/1/17,58.58302063,0.171865941,58.2,59.9,2880,2880
VIAM,12/1/17,58.33035042,0.105363941,57.9,58.6,2972,2974
VIAM,1/1/18,58.35937558,0.093698354,57.9,58.7,2976,2976
VIAM,2/1/18,58.35468792,0.203212945,57.5,58.8,2688,2688
VIAM,3/1/18,54.81962359,2.932872041,47.3,59.2,2976,2976
VIAM,4/1/18,58.86659722,0.235409176,58.3,59.5,2880,2880
VIAM,5/1/18,59.03081318,0.318010691,58.3,59.7,2976,2976
VIAM,6/1/18,58.09784719,1.721936875,53,59.4,2880,2880
VIAM,7/1/18,54.20450259,4.471460177,48,59.5,2976,2976
VIAM,8/1/18,59.10147849,0.490238596,57.6,60.1,2976,2976
VIAM,9/1/18,58.80975689,0.31722347,57.5,59.6,2880,2880
VIAM,10/1/18,58.57473108,0.140538685,58.1,59.1,2976,2976
VIAM,11/1/18,58.37562536,0.127836285,57.9,58.9,2880,2880
VIAM,12/1/18,58.40797179,0.172388304,57.9,58.9,2973,1787
VIAM,1/1/19,58.64089375,0.141769336,58.1,58.9,2976,0
VIAM,2/1/19,58.75282723,0.131605098,58.2,59.1,2688,0
VIAM,3/1/19,58.91552417,0.153833699,58.5,59.5,2976,0
VIAM,4/1/19,59.09572912,0.16242924,58.7,59.6,2880,0
VIAM,5/1/19,58.5317541,1.494751493,53,59.8,2976,0
VIAM,6/1/19,57.23253484,2.71588678,52.6,60,2880,0
VIAM,7/1/19,59.02190864,0.339644576,58,60.1,2976,0
VIAM,8/1/19,59.50819895,0.368024434,58.6,60.2,2976,0
VIAM,9/1/19,59.30052073,0.220477606,58.7,59.9,2880,0
VIAM,10/1/19,59.05504021,0.156456829,58.5,59.5,2976,0
VIAM,11/1/19,58.95138892,0.143801246,58.4,59.4,2880,0
VIAM,12/1/19,58.72535378,0.40439703,57.6,59.1,2970,519
VIAM,1/1/20,57.99075912,0.124151518,57.5,58.2,2976,2976
VIAM,2/1/20,57.64565344,0.504719764,56.5,58.4,2784,2784
VIAM,3/1/20,55.3430443,1.880821927,52.4,59,2976,2976
VIAM,4/1/20,58.55090286,0.236344763,57.8,59.5,2880,2880
VIAM,5/1/20,59.04502695,0.314162272,58.3,59.9,2976,2976
VIAM,6/1/20,58.92062492,0.459901331,57.9,60.1,2880,2880
VIAM,7/1/20,58.81538975,0.359988422,57.5,59.8,2976,2976
VIAM,8/1/20,58.44287647,0.377790562,57.5,59.4,2976,2976
VIAM,9/1/20,58.69038202,0.470344517,55.9,59.6,2880,2880
VIAM,10/1/20,58.44153232,0.147524692,58.1,58.9,2976,2976
VIAM,11/1/20,58.25607625,0.131248,57.9,58.7,2880,2880
VIAM,12/1/20,58.11918662,0.097212452,57.7,58.3,2976,2976
VIAM,1/1/21,58.13017466,0.09706699,57.7,58.3,2976,2976
VIAM,2/1/21,57.88850443,0.531737444,54.8,58.5,2688,2688
VIAM,3/1/21,48.52096762,3.933234053,37.8,56.4,2976,2976
VIAM,4/1/21,50.57684024,0.775453785,48.9,51.9,2880,2880
VIAM,5/1/21,50.86784276,0.626564004,48.9,52.1,2976,2976
VIAM,6/1/21,52.1033334,0.358157096,51.2,52.9,2880,2880
VIAM,7/1/21,52.4940524,0.244265058,52,53.1,2976,2976
VIAM,8/1/21,54.73924734,0.656262911,52.1,56.2,2976,2976
VIAM,9/1/21,53.52902779,1.957521531,49.7,55.5,2880,2880
VIAM,10/1/21,56.2545027,1.671394449,49.4,58.9,2976,2976
VIAM,11/1/21,58.24878472,0.112528573,57.7,58.7,2880,2880
VIAM,12/1/21,58.20329286,0.110259811,57.9,58.5,2976,2976
VIAM,1/1/22,58.44684874,0.355862534,57.7,59.1,2967,2969
VIAM,2/1/22,58.90677133,0.109972949,58.5,59.3,2688,2688
VIAM,3/1/22,58.99354853,0.139501934,58.6,59.3,2976,2976
VIAM,4/1/22,56.12305556,1.789367911,53.7,59.4,2880,2880
VIAM,5/1/22,58.93534935,0.337763915,58,59.7,2976,2976
VIAM,6/1/22,59.17145833,0.322478371,58.4,60,2880,2880
VIAM,7/1/22,59.10709009,0.212278606,58.6,59.8,2976,2976
VIAM,8/1/22,59.44193549,0.481882242,58.6,60.4,2976,2976
VIAM,9/1/22,59.29027775,0.51574297,58,60.3,2880,2880
VIAM,10/1/22,58.79697578,0.188075599,58.4,59.5,2976,2976
VIAM,11/1/22,58.62486089,0.145512997,58.2,59.1,2880,2880
VIAM,12/1/22,58.54623683,0.115371868,57.9,58.9,1289,1289